[[{"header":{"parameterUnit":"m.s-1","parameterCategory":1,"la1":30.2991,"la2":30.254,"lo1":-89.0895,"lo2":-89.0444,"dy":0.0017,"dx":0.0017,"nx":28,"ny":28,"refTime":"2025-03-16T21:00:00:Z","depth":0,"parameterNumber":2,"parameterNumberName":"U-component_of_WINDS"},"data":[0,0,0,0,0,0,0,0,0,0,0,0,0,0,0,0,0,0,0,0,0,0,0,0,0,0,0,0,0,0,0,0,0,0,0,0,0,0,0,0,0,0,0,0,0,0,0,0,0,0,0,0,0,0,0,0,0,0,6.0029,6.003,0,6.013,6.0131,6.0132,6.008,6.0077,6.0074,6.0072,6.0177,6.0182,6.0188,0,0,0,0,0,0,0,0,0,0,0,0,0,5.9793,5.9798,6.0028,6.003,6.0031,6.013,6.0131,6.0133,6.008,6.0077,6.0074,6.0071,6.0176,6.0182,6.0188,0,0,0,0,0,0,0,0,0,0,0,0,0,5.9895,5.9799,6.0028,6.0017,6.0017,6.0129,6.0131,6.0133,6.0081,6.0077,6.0073,6.0069,6.0173,6.0181,6.0189,6.0319,0,0,6.0214,6.0217,0,0,0,0,0,0,0,0,5.9889,5.9904,6.0017,6.0018,6.0018,6.0088,6.0087,6.0196,6.0082,6.0057,6.0072,6.0067,6.0151,6.0161,6.0189,6.0324,6.0329,6.0214,6.0219,6.0222,6.0225,0,0,0,0,0,0,0,5.9882,5.9899,6.0069,6.0019,6.0019,6.0008,6.0018,6.0107,6.0125,6.0059,6.0055,6.0068,6.015,6.0181,6.0191,6.033,6.0214,6.0221,6.0226,6.0229,6.0582,6.0587,0,0,0,0,0,0,5.9876,5.9894,6.0065,6.0072,5.9942,6.0015,6.0026,6.007,6.0124,6.0129,6.0071,6.0065,6.0169,6.0181,6.0194,6.0353,6.0222,6.023,6.0234,6.0578,6.0583,6.0588,0,0,0,0,0,0,5.9871,5.9891,6.0061,5.9982,6.0003,6.0024,6.0073,6.0074,6.0104,6.0134,6.0137,6.0099,6.0167,6.0183,6.0289,6.0356,6.0234,6.0241,6.0572,6.058,6.0586,6.067,0,0,0,0,0,0,5.9864,5.989,5.9939,5.9983,6.0007,6.0154,6.0077,6.0079,6.0118,6.0111,6.016,6.0165,6.0165,6.0278,6.0297,6.0364,6.0247,6.0567,6.0576,6.0584,6.0661,6.0679,6.0694,0,0,0,0,0,5.9856,5.9958,5.9941,5.9962,6.0068,6.0158,6.0171,6.0169,6.0123,6.0173,6.0193,6.0163,6.0345,6.0289,6.0311,6.0381,6.0562,6.0573,6.0583,6.0654,6.0675,6.0693,0,0,0,0,0,0,5.992,5.9963,5.9945,6.0064,6.0108,6.0149,6.0211,6.0191,6.0249,6.024,6.0234,6.0246,6.0358,6.038,6.0317,6.0512,6.0447,6.0462,6.0493,6.0514,6.053,6.0523,6.0254,0,0,0,0,0,5.9948,6.0016,6.0051,6.0153,6.0175,6.019,6.0229,6.0223,6.0268,6.0287,6.0313,6.0359,6.0427,6.0471,6.0535,6.0664,6.0676,6.0724,6.074,6.0753,6.0766,6.084,6.0862,6.0622,6.0622,6.0622,0,0,6.0006,6.0039,6.0082,6.0166,6.0199,6.0272,6.0206,6.0284,6.0339,6.0299,6.0401,6.0423,6.0474,6.0593,6.0647,6.0615,6.0835,6.0766,6.0776,6.0783,6.0853,6.0875,6.0896,6.0629,6.0628,6.0627,0,0,6.0151,6.0181,6.027,6.0305,6.0356,6.0366,6.0388,6.0432,6.0446,6.0549,6.0521,6.0586,6.0702,6.074,6.0775,6.0937,6.0913,6.0958,6.1043,6.1115,6.1133,6.115,6.1211,6.1232,6.0971,6.0971,6.0972,0,6.0217,6.0324,6.0319,6.0401,6.044,6.0408,6.05,6.0534,6.0604,6.0632,6.0595,6.0743,6.0774,6.0903,6.0943,6.0972,6.0998,6.0952,6.1131,6.1148,6.1163,6.1221,6.1243,6.0977,6.0976,6.0976,6.0975,0,6.0405,6.048,6.0546,6.0615,6.0662,6.0748,6.0758,6.0806,6.0797,6.0811,6.0919,6.0956,6.1028,6.1058,6.105,6.1188,6.1167,6.1131,6.1065,6.1192,6.1246,6.1268,6.0984,6.0982,6.0981,6.0979,0,0,6.0591,6.0658,6.0682,6.0714,6.077,6.0828,6.0915,6.0985,6.1028,6.1078,6.1152,6.1252,6.122,6.126,6.1256,6.1318,6.1448,6.1275,6.1276,6.1308,6.1606,6.1633,6.1659,6.1432,6.1436,6.144,6.1602,0,6.0741,6.0891,6.089,6.103,6.1101,6.1073,6.1148,6.1192,6.1208,6.1272,6.1289,6.1362,6.1313,6.1337,6.1397,6.1419,6.1508,6.1407,6.1503,6.1506,6.1492,6.1687,6.1716,6.1867,6.1623,6.1626,6.1629,0,6.0935,6.0992,6.1139,6.1187,6.1217,6.1284,6.1351,6.1411,6.1461,6.1468,6.1514,6.1502,6.1592,6.1523,6.1649,6.1581,6.162,6.1637,6.1643,6.1653,6.1576,6.1704,6.1915,6.1938,6.1662,6.1659,6.1657,0,6.1059,6.1172,6.1276,6.1304,6.1362,6.1411,6.1437,6.1482,6.1526,6.1584,6.1613,6.1681,6.1719,6.1773,6.178,6.1729,6.1908,6.1839,6.1919,6.1919,6.1958,6.1956,6.2181,6.1981,6.1981,6.198,6.198,0,6.1227,6.1319,6.1333,6.1397,6.15,6.1499,6.1601,6.1623,6.1665,6.1734,6.1713,6.1779,6.1783,6.1851,6.1858,6.1963,6.1979,6.1989,6.199,6.1992,6.1991,6.2019,6.2009,6.1986,6.1985,6.1984,6.1983,0,6.1383,6.1396,6.1507,6.1554,6.1568,6.1642,6.1682,6.1744,6.1759,6.1847,6.1867,6.1891,6.197,6.1983,6.2075,6.208,6.2207,6.2195,6.219,6.2189,6.2269,6.2262,6.252,6.2555,6.2331,6.2333,6.2335,0,6.149,6.1561,6.1615,6.166,6.1689,6.1761,6.1806,6.1808,6.1856,6.192,6.1975,6.2052,6.2114,6.2243,6.2269,6.2341,6.2333,6.2419,6.2344,6.2345,6.2337,6.2334,6.2342,6.2433,6.2436,6.2438,6.2439,0,6.168,6.1684,6.1749,6.1817,6.1872,6.1925,6.1976,6.2015,6.2024,6.2079,6.216,6.2209,6.2304,6.2383,6.2454,6.2483,6.2465,6.2463,6.2485,6.2489,6.2484,6.249,6.2231,6.2457,6.2455,6.2454,6.2453,6.2452,6.1817,6.1879,6.1928,6.2002,6.2041,6.2089,6.2151,6.2174,6.2241,6.2319,6.2317,6.2407,6.2458,6.2552,6.2586,6.2658,6.263,6.2662,6.2671,6.2679,6.2688,6.2471,6.267,6.267,6.267,6.2669,6.2669,0,6.2008,6.2038,6.2106,6.2179,6.2238,6.2214,6.227,6.2322,6.2401,6.2449,6.2511,6.2606,6.2682,6.2715,6.2791,6.2842,6.2836,6.2862,6.2859,6.2867,6.2707,6.2681,6.2866,6.2866,6.2866,6.2866,6.2866,6.2866,6.2114,6.2219,6.2229,6.2354,6.2384,6.2471,6.2506,6.2552,6.2591,6.2697,6.276,6.2781,6.2825,6.2904,6.2974,6.2982,6.3012,6.3043,6.3047,6.2897,6.2878,6.2858,6.2834,6.3048,6.3049,6.3201,6.3202,6.3203]},{"header":{"parameterUnit":"m.s-1","parameterCategory":1,"la1":30.2991,"la2":30.254,"lo1":-89.0895,"lo2":-89.0444,"dy":0.0017,"dx":0.0017,"nx":28,"ny":28,"refTime":"2025-03-16T21:00:00:Z","depth":0,"parameterNumber":3,"parameterNumberName":"V-component_of_WINDS"},"data":[0,0,0,0,0,0,0,0,0,0,0,0,0,0,0,0,0,0,0,0,0,0,0,0,0,0,0,0,0,0,0,0,0,0,0,0,0,0,0,0,0,0,0,0,0,0,0,0,0,0,0,0,0,0,0,0,0,0,-3.324,-3.3241,0,-3.33,-3.3301,-3.3302,-3.3307,-3.3306,-3.3306,-3.3305,-3.3364,-3.3366,-3.3368,0,0,0,0,0,0,0,0,0,0,0,0,0,-3.3128,-3.313,-3.324,-3.3241,-3.3242,-3.33,-3.3301,-3.3302,-3.3307,-3.3306,-3.3305,-3.3305,-3.3363,-3.3365,-3.3368,0,0,0,0,0,0,0,0,0,0,0,0,0,-3.3181,-3.3131,-3.324,-3.3251,-3.3253,-3.33,-3.3301,-3.3302,-3.3307,-3.3306,-3.3305,-3.3304,-3.3362,-3.3365,-3.3368,-3.3407,0,0,-3.3378,-3.338,0,0,0,0,0,0,0,0,-3.3178,-3.3185,-3.3249,-3.3251,-3.3253,-3.3295,-3.3283,-3.3337,-3.3307,-3.3286,-3.3305,-3.3304,-3.3341,-3.3346,-3.3359,-3.341,-3.3413,-3.3378,-3.338,-3.3382,-3.3383,0,0,0,0,0,0,0,-3.3175,-3.3183,-3.3264,-3.325,-3.3252,-3.3253,-3.3259,-3.3293,-3.3318,-3.3288,-3.3289,-3.3296,-3.3342,-3.3356,-3.3361,-3.3413,-3.3378,-3.3381,-3.3383,-3.3385,-3.35,-3.3501,0,0,0,0,0,0,-3.3169,-3.318,-3.3262,-3.3266,-3.3212,-3.3256,-3.3263,-3.3282,-3.3318,-3.3323,-3.3297,-3.3296,-3.3351,-3.3357,-3.3363,-3.3412,-3.3382,-3.3385,-3.3387,-3.3499,-3.35,-3.3501,0,0,0,0,0,0,-3.3167,-3.3176,-3.3259,-3.3223,-3.3234,-3.3259,-3.328,-3.3284,-3.3298,-3.3325,-3.3329,-3.3307,-3.3351,-3.3358,-3.3397,-3.3414,-3.3386,-3.3389,-3.3497,-3.3499,-3.3501,-3.3508,0,0,0,0,0,0,-3.3163,-3.3175,-3.3191,-3.3223,-3.3235,-3.3293,-3.3281,-3.3286,-3.3304,-3.3304,-3.3335,-3.3339,-3.3351,-3.3392,-3.34,-3.3418,-3.3392,-3.3496,-3.3498,-3.35,-3.3507,-3.351,-3.3513,0,0,0,0,0,-3.3159,-3.319,-3.3192,-3.3201,-3.3255,-3.3294,-3.3301,-3.3314,-3.3305,-3.3321,-3.3338,-3.3338,-3.3411,-3.3396,-3.3405,-3.3424,-3.3495,-3.3498,-3.35,-3.3505,-3.351,-3.3513,0,0,0,0,0,0,-3.3157,-3.3194,-3.3196,-3.3238,-3.3263,-3.3294,-3.3314,-3.3318,-3.3344,-3.3343,-3.3357,-3.3364,-3.3402,-3.3417,-3.3399,-3.3464,-3.3452,-3.3456,-3.3453,-3.3457,-3.346,-3.3455,-3.3394,0,0,0,0,0,-3.3162,-3.3191,-3.3221,-3.3255,-3.3267,-3.3289,-3.3306,-3.3314,-3.334,-3.335,-3.337,-3.3394,-3.3422,-3.344,-3.3468,-3.3509,-3.3516,-3.3527,-3.353,-3.3532,-3.3536,-3.3559,-3.3565,-3.351,-3.351,-3.351,0,0,-3.3171,-3.3195,-3.3212,-3.3255,-3.3275,-3.3304,-3.3297,-3.3328,-3.335,-3.3354,-3.3392,-3.3408,-3.3436,-3.3476,-3.3494,-3.3489,-3.3553,-3.3536,-3.3537,-3.354,-3.3563,-3.3568,-3.3572,-3.3511,-3.3511,-3.3511,0,0,-3.3203,-3.3224,-3.3255,-3.3276,-3.3307,-3.3321,-3.3329,-3.336,-3.3371,-3.3409,-3.3414,-3.3439,-3.3488,-3.3508,-3.3524,-3.3566,-3.3567,-3.3574,-3.359,-3.3613,-3.3617,-3.3621,-3.3636,-3.3641,-3.3578,-3.3578,-3.3578,0,-3.321,-3.3255,-3.327,-3.3302,-3.3321,-3.3328,-3.3359,-3.3378,-3.3416,-3.3429,-3.3423,-3.3484,-3.3504,-3.3549,-3.3559,-3.3572,-3.3581,-3.357,-3.3616,-3.362,-3.3624,-3.3638,-3.3644,-3.3578,-3.3578,-3.3578,-3.3578,0,-3.3263,-3.3294,-3.3315,-3.3353,-3.3375,-3.3406,-3.3425,-3.3445,-3.3452,-3.3467,-3.3506,-3.353,-3.3562,-3.3574,-3.358,-3.3621,-3.3616,-3.3613,-3.3601,-3.3629,-3.3643,-3.3649,-3.3579,-3.3579,-3.3579,-3.3579,0,0,-3.3294,-3.3341,-3.3349,-3.3367,-3.3402,-3.3426,-3.3458,-3.3491,-3.3508,-3.3534,-3.3561,-3.3602,-3.36,-3.3618,-3.3627,-3.3647,-3.3679,-3.3641,-3.3642,-3.3648,-3.3725,-3.3728,-3.3734,-3.3681,-3.3682,-3.3683,-3.3723,0,-3.333,-3.3387,-3.3403,-3.3451,-3.348,-3.3488,-3.3516,-3.354,-3.3555,-3.3582,-3.3598,-3.3627,-3.3621,-3.3633,-3.3653,-3.3671,-3.3695,-3.3668,-3.3705,-3.3706,-3.3698,-3.3741,-3.3743,-3.378,-3.3728,-3.3729,-3.373,0,-3.3379,-3.3408,-3.346,-3.3493,-3.3506,-3.353,-3.3563,-3.3588,-3.3616,-3.3625,-3.3647,-3.3655,-3.3688,-3.3675,-3.372,-3.3702,-3.3718,-3.3729,-3.3731,-3.3734,-3.3719,-3.3746,-3.3792,-3.3798,-3.3739,-3.3738,-3.3737,0,-3.3397,-3.3449,-3.3487,-3.3502,-3.3541,-3.3558,-3.3575,-3.3602,-3.3622,-3.365,-3.3663,-3.3694,-3.3711,-3.3734,-3.375,-3.3739,-3.3794,-3.3782,-3.3803,-3.3802,-3.3813,-3.3812,-3.3863,-3.3824,-3.3824,-3.3824,-3.3824,0,-3.3436,-3.3467,-3.3496,-3.3519,-3.3554,-3.3572,-3.3606,-3.3623,-3.3648,-3.3674,-3.3683,-3.3707,-3.3726,-3.3753,-3.3765,-3.3802,-3.3809,-3.3817,-3.382,-3.3817,-3.3816,-3.3827,-3.3825,-3.3825,-3.3825,-3.3825,-3.3825,0,-3.3461,-3.3482,-3.3524,-3.3558,-3.3567,-3.3592,-3.3621,-3.3644,-3.366,-3.3693,-3.3702,-3.3727,-3.3759,-3.3777,-3.3817,-3.3826,-3.3866,-3.3868,-3.3857,-3.3858,-3.3877,-3.3875,-3.3937,-3.3946,-3.3901,-3.3901,-3.3902,0,-3.3484,-3.3509,-3.3546,-3.3565,-3.3583,-3.3613,-3.3634,-3.3652,-3.3672,-3.3707,-3.3726,-3.3759,-3.3787,-3.3838,-3.3859,-3.389,-3.3892,-3.3912,-3.3897,-3.3893,-3.3893,-3.3891,-3.3894,-3.3914,-3.3915,-3.3915,-3.3915,0,-3.3523,-3.3533,-3.3562,-3.3596,-3.362,-3.3647,-3.3673,-3.3688,-3.3711,-3.3734,-3.3768,-3.3789,-3.3831,-3.3864,-3.3897,-3.3914,-3.3918,-3.392,-3.3926,-3.3923,-3.3916,-3.392,-3.3864,-3.3918,-3.3918,-3.3918,-3.3918,-3.3917,-3.3549,-3.3571,-3.3602,-3.3634,-3.3657,-3.3682,-3.3705,-3.3725,-3.3754,-3.379,-3.3799,-3.3835,-3.3863,-3.3908,-3.3926,-3.3954,-3.395,-3.3959,-3.3962,-3.3964,-3.3964,-3.3912,-3.396,-3.396,-3.396,-3.396,-3.396,0,-3.3588,-3.3609,-3.3639,-3.3676,-3.3702,-3.3706,-3.3736,-3.3757,-3.3789,-3.3815,-3.3843,-3.3882,-3.3914,-3.3939,-3.3971,-3.3989,-3.3992,-3.3997,-3.3996,-3.4,-3.3966,-3.3957,-3.3994,-3.3994,-3.3994,-3.3994,-3.3994,-3.3994,-3.3612,-3.3651,-3.3664,-3.3714,-3.3733,-3.377,-3.3787,-3.381,-3.3831,-3.3875,-3.3902,-3.3918,-3.3944,-3.3979,-3.4009,-3.4015,-3.4027,-3.4032,-3.4038,-3.4006,-3.4002,-3.3999,-3.399,-3.4034,-3.4034,-3.407,-3.407,-3.4071]}]]